Location: Newark
(45.5000°N, 11.4167°E)
Time: 15:54:55
(UTC+00:00)

A-11 Canister half - Pass Details

Date: 28 August 2019
Orbit: 1514 x 1686 km, 47.2° (Epoch: 14 September)

Event Time Altitude Azimuth Distance (km) Brightness Sun altitude
Rises 15:44:31 0° 232° (SW) 4,651 12.5 22.8°
Reaches altitude 10° 15:47:32 10° 230° (SW) 3,680 12.1 22.3°
Maximum altitude 15:56:41 67° 150° (SSE) 1,662 9.4 20.7°
Drops below altitude 10° 16:06:09 10° 71° (ENE) 3,799 10.6 19.0°
Sets 16:09:19 0° 69° (ENE) 4,810 11.0 18.5°
